Location: Norton
(51.3000°N, 0.8167°E)
Time: 14:02:00
(UTC+00:00)

SL-16 R/B - Pass Details

Date: 03 March 2021
Orbit: 842 x 846 km, 71.0° (Epoch: 10 April)

Event Time Altitude Azimuth Distance (km) Brightness Sun altitude
Rises 19:31:20 0° 227° (SW) 3,394 5.8 -17.9°
Reaches altitude 10° 19:33:51 10° 232° (SW) 2,463 5.1 -18.3°
Maximum altitude 19:39:20 50° 308° (NW) 1,067 3.1 -19.2°
Drops below altitude 10° 19:44:53 10° 24° (NNE) 2,479 4.5 -20.0°
Sets 19:47:25 0° 29° (NNE) 3,418 5.2 -20.4°
